AMQ626 HEGN-EPKT

Flight info

Callsign AMQ626
Flight time 4h 2m
Altitude 34000
Route SOLOX1B SOLOX V603 GIDID DCT KAPIT L677 CVO L617 NOZ L551 ANTAR UN133 GUDIS/N0456F360 UN133 ATFIR N133 LOMOS DCT PADGU DCT GESBA DCT ARCAZ DCT KOVEK DCT REDSI/N0457F370 DCT MEBAN
Aircraft A320/M-SDE3FGHIRWY/LB1

Departure

Time 2026-04-29 15:18
Airport Hurghada International Airport (HEGN)

Arrival

Time 2026-04-29 19:21
Airport Katowice Wojciech Korfanty International Airport (EPKT)
Time Latitude Longitude Altitude Speed Heading
2026-04-29 14:54 27.17667 33.80477 57 ft 0 kts 255°
2026-04-29 15:09 27.17670 33.80491 57 ft 2 kts 255°
2026-04-29 15:09 27.17674 33.80507 57 ft 2 kts 255°
2026-04-29 15:10 27.17678 33.80524 57 ft 2 kts 255°
2026-04-29 15:10 27.17682 33.80541 57 ft 2 kts 255°
2026-04-29 15:10 27.17686 33.80557 57 ft 2 kts 255°
2026-04-29 15:10 27.17688 33.80564 57 ft 0 kts 256°
2026-04-29 15:11 27.17690 33.80569 57 ft 0 kts 196°
2026-04-29 15:11 27.17694 33.80569 57 ft 1 kts 156°
2026-04-29 15:11 27.17701 33.80567 57 ft 5 kts 166°
2026-04-29 15:11 27.17712 33.80564 57 ft 0 kts 166°
2026-04-29 15:13 27.17705 33.80565 57 ft 3 kts 166°
2026-04-29 15:13 27.17651 33.80580 57 ft 14 kts 166°
2026-04-29 15:14 27.17522 33.80608 57 ft 20 kts 193°
2026-04-29 15:14 27.17466 33.80480 57 ft 19 kts 259°
2026-04-29 15:14 27.17433 33.80329 57 ft 21 kts 256°
2026-04-29 15:14 27.17387 33.80149 57 ft 24 kts 251°
2026-04-29 15:15 27.17342 33.79968 57 ft 23 kts 256°
2026-04-29 15:15 27.17302 33.79790 57 ft 24 kts 252°
2026-04-29 15:15 27.17257 33.79605 57 ft 24 kts 256°
2026-04-29 15:15 27.17153 33.79507 57 ft 22 kts 161°
2026-04-29 15:16 27.17006 33.79553 57 ft 21 kts 165°
2026-04-29 15:16 27.16864 33.79597 57 ft 21 kts 165°
2026-04-29 15:16 27.16718 33.79639 57 ft 22 kts 166°
2026-04-29 15:16 27.16552 33.79688 57 ft 25 kts 163°
2026-04-29 15:17 27.16381 33.79695 57 ft 26 kts 245°
2026-04-29 15:17 27.16412 33.79526 57 ft 27 kts 353°
2026-04-29 15:17 27.16705 33.79445 58 ft 76 kts 345°
2026-04-29 15:17 27.17460 33.79221 58 ft 144 kts 345°
2026-04-29 15:18 27.18555 33.78910 436 ft 170 kts 343°
2026-04-29 15:18 27.19671 33.78624 1318 ft 166 kts 343°
2026-04-29 15:18 27.20765 33.78342 2092 ft 166 kts 343°
2026-04-29 15:18 27.21926 33.78034 2441 ft 184 kts 343°
2026-04-29 15:19 27.23245 33.77679 2853 ft 202 kts 345°
2026-04-29 15:19 27.24676 33.77433 3279 ft 221 kts 350°
2026-04-29 15:19 27.26267 33.77258 3722 ft 239 kts 351°
2026-04-29 15:19 27.27995 33.77072 4168 ft 257 kts 351°
2026-04-29 15:20 27.29786 33.76871 4756 ft 267 kts 351°
2026-04-29 15:20 27.31645 33.76655 5539 ft 271 kts 351°
2026-04-29 15:20 27.33516 33.76432 6302 ft 274 kts 351°
2026-04-29 15:20 27.35425 33.76199 7055 ft 279 kts 351°
2026-04-29 15:21 27.37334 33.75962 7792 ft 283 kts 351°
2026-04-29 15:21 27.39302 33.75717 8530 ft 287 kts 351°
2026-04-29 15:21 27.41261 33.75473 9244 ft 290 kts 351°
2026-04-29 15:21 27.43277 33.75220 9958 ft 294 kts 351°
2026-04-29 15:22 27.45336 33.74962 10549 ft 303 kts 351°
2026-04-29 15:22 27.47463 33.74693 10873 ft 320 kts 351°
2026-04-29 15:22 27.49755 33.74403 11185 ft 338 kts 351°
2026-04-29 15:22 27.52135 33.74104 11499 ft 354 kts 351°
2026-04-29 15:23 27.54586 33.73798 12036 ft 361 kts 352°
2026-04-29 15:23 27.57103 33.73486 12725 ft 364 kts 351°
2026-04-29 15:23 27.59614 33.73171 13390 ft 367 kts 351°
2026-04-29 15:23 27.62133 33.72803 14037 ft 370 kts 349°
2026-04-29 15:24 27.64685 33.72403 14680 ft 374 kts 349°
2026-04-29 15:24 27.67254 33.71998 15314 ft 377 kts 349°
2026-04-29 15:24 27.69852 33.71589 15940 ft 380 kts 348°
2026-04-29 15:24 27.72467 33.71179 16557 ft 383 kts 348°
2026-04-29 15:25 27.75129 33.70763 17171 ft 386 kts 348°
2026-04-29 15:25 27.77773 33.70350 17766 ft 389 kts 348°
2026-04-29 15:25 27.80450 33.69932 18350 ft 392 kts 348°
2026-04-29 15:25 27.83177 33.69507 18926 ft 395 kts 348°
2026-04-29 15:26 27.85887 33.69084 19482 ft 398 kts 348°
2026-04-29 15:26 27.88611 33.68659 20025 ft 401 kts 347°
2026-04-29 15:26 27.91391 33.68225 20564 ft 403 kts 347°
2026-04-29 15:26 27.94152 33.67794 21087 ft 406 kts 347°
2026-04-29 15:27 27.96957 33.67355 21603 ft 408 kts 347°
2026-04-29 15:27 27.99769 33.66916 22103 ft 411 kts 347°
2026-04-29 15:27 28.02579 33.66476 22589 ft 413 kts 347°
2026-04-29 15:27 28.05446 33.66027 23070 ft 416 kts 347°
2026-04-29 15:28 28.08286 33.65581 23532 ft 418 kts 347°
2026-04-29 15:28 28.10204 33.65281 23835 ft 419 kts 347°
2026-04-29 15:28 28.14061 33.64680 24421 ft 422 kts 347°
2026-04-29 15:28 28.16970 33.64227 24844 ft 424 kts 346°
2026-04-29 15:29 28.19809 33.63545 25241 ft 420 kts 337°
2026-04-29 15:29 28.24859 33.60484 26046 ft 408 kts 317°
2026-04-29 15:30 28.29199 33.56369 26785 ft 410 kts 315°
2026-04-29 15:30 28.31370 33.54271 27136 ft 412 kts 315°
2026-04-29 15:30 28.33539 33.52177 27588 ft 411 kts 315°
2026-04-29 15:30 28.35695 33.50102 28100 ft 408 kts 315°
2026-04-29 15:31 28.37836 33.48045 28599 ft 405 kts 315°
2026-04-29 15:31 28.39989 33.45975 29074 ft 403 kts 315°
2026-04-29 15:31 28.42119 33.43928 29521 ft 401 kts 315°
2026-04-29 15:31 28.44215 33.41912 29958 ft 399 kts 315°
2026-04-29 15:32 28.46348 33.39861 30402 ft 397 kts 315°
2026-04-29 15:32 28.48411 33.37876 30821 ft 395 kts 314°
2026-04-29 15:32 28.50519 33.35847 31230 ft 393 kts 314°
2026-04-29 15:32 28.52576 33.33863 31632 ft 391 kts 314°
2026-04-29 15:33 28.54633 33.31869 32049 ft 389 kts 314°
2026-04-29 15:33 28.56700 33.29865 32439 ft 387 kts 314°
2026-04-29 15:33 28.58724 33.27905 32745 ft 387 kts 314°
2026-04-29 15:33 28.60768 33.25926 33015 ft 388 kts 314°
2026-04-29 15:34 28.62837 33.23924 33280 ft 389 kts 314°
2026-04-29 15:34 28.64893 33.21934 33539 ft 389 kts 314°
2026-04-29 15:34 28.66951 33.19944 33790 ft 389 kts 314°
2026-04-29 15:35 28.71058 33.15969 33886 ft 390 kts 314°
2026-04-29 15:35 28.75168 33.11990 33893 ft 390 kts 314°
2026-04-29 15:36 28.79301 33.07985 33894 ft 391 kts 314°
2026-04-29 15:36 28.83428 33.03981 33894 ft 392 kts 314°
2026-04-29 15:37 28.87575 32.99952 33894 ft 393 kts 314°
2026-04-29 15:37 28.91717 32.95925 33894 ft 394 kts 314°
2026-04-29 15:38 28.95892 32.91861 33894 ft 395 kts 313°
2026-04-29 15:38 29.00060 32.87804 33895 ft 395 kts 313°
2026-04-29 15:39 29.04215 32.83756 33895 ft 393 kts 312°
2026-04-29 15:39 29.08363 32.79707 33895 ft 391 kts 311°
2026-04-29 15:40 29.12477 32.75697 33895 ft 388 kts 311°
2026-04-29 15:40 29.16576 32.71701 33898 ft 388 kts 311°
2026-04-29 15:41 29.20633 32.67725 33910 ft 387 kts 311°
2026-04-29 15:41 29.24711 32.63720 33930 ft 386 kts 310°
2026-04-29 15:42 29.28543 32.59487 33963 ft 383 kts 305°
2026-04-29 15:42 29.32003 32.54811 33988 ft 389 kts 301°
2026-04-29 15:43 29.35374 32.49922 33997 ft 394 kts 301°
2026-04-29 15:43 29.38772 32.44980 34000 ft 394 kts 301°
2026-04-29 15:44 29.42131 32.40083 34001 ft 394 kts 301°
2026-04-29 15:44 29.45504 32.35152 34002 ft 394 kts 301°
2026-04-29 15:45 29.48878 32.30194 34003 ft 395 kts 301°
2026-04-29 15:45 29.52254 32.25234 34002 ft 395 kts 301°
2026-04-29 15:46 29.55603 32.20315 34001 ft 394 kts 301°
2026-04-29 15:46 29.58994 32.15332 34001 ft 395 kts 301°
2026-04-29 15:47 29.62349 32.10398 34002 ft 394 kts 301°
2026-04-29 15:47 29.65714 32.05442 34002 ft 394 kts 301°
2026-04-29 15:48 29.69074 32.00493 34002 ft 394 kts 301°
2026-04-29 15:48 29.72438 31.95528 34002 ft 394 kts 301°
2026-04-29 15:49 29.75788 31.90577 34002 ft 394 kts 301°
2026-04-29 15:49 29.79124 31.85614 34002 ft 394 kts 300°
2026-04-29 15:50 29.82386 31.80532 34002 ft 394 kts 300°
2026-04-29 15:50 29.85625 31.75460 34003 ft 394 kts 300°
2026-04-29 15:51 29.88858 31.70412 34002 ft 394 kts 300°
2026-04-29 15:51 29.92126 31.65310 34002 ft 395 kts 300°
2026-04-29 15:52 29.95395 31.60256 34002 ft 394 kts 300°
2026-04-29 15:52 29.98662 31.55208 34001 ft 395 kts 300°
2026-04-29 15:53 30.01925 31.50157 34001 ft 394 kts 300°
2026-04-29 15:53 30.05205 31.45070 34002 ft 394 kts 300°
2026-04-29 15:54 30.08575 31.40123 34000 ft 395 kts 304°
2026-04-29 15:54 30.12340 31.35550 33998 ft 389 kts 308°
2026-04-29 15:55 30.16257 31.31328 34001 ft 384 kts 308°
2026-04-29 15:55 30.20130 31.27154 34002 ft 384 kts 308°
2026-04-29 15:56 30.24053 31.22928 34002 ft 384 kts 308°
2026-04-29 15:56 30.27945 31.18736 34002 ft 384 kts 308°
2026-04-29 15:57 30.31837 31.14541 34003 ft 385 kts 308°
2026-04-29 15:57 30.35761 31.10307 34003 ft 385 kts 308°
2026-04-29 15:58 30.39664 31.06091 34002 ft 386 kts 308°
2026-04-29 15:58 30.43595 31.01841 34001 ft 387 kts 308°
2026-04-29 15:59 30.47500 30.97612 34003 ft 388 kts 308°
2026-04-29 15:59 30.51432 30.93349 34001 ft 388 kts 307°
2026-04-29 16:00 30.55383 30.89060 34001 ft 389 kts 307°
2026-04-29 16:00 30.59320 30.84781 34002 ft 389 kts 308°
2026-04-29 16:01 30.63233 30.80525 34004 ft 388 kts 308°
2026-04-29 16:01 30.67162 30.76247 34008 ft 389 kts 308°
2026-04-29 16:02 30.71092 30.71961 34014 ft 387 kts 308°
2026-04-29 16:02 30.75015 30.67678 34022 ft 388 kts 308°
2026-04-29 16:03 30.78946 30.63382 34027 ft 388 kts 308°
2026-04-29 16:03 30.82856 30.59102 34029 ft 388 kts 308°
2026-04-29 16:04 30.86769 30.54817 34028 ft 387 kts 308°
2026-04-29 16:04 30.90686 30.50524 34029 ft 386 kts 307°
2026-04-29 16:05 30.94567 30.46269 34029 ft 385 kts 307°
2026-04-29 16:05 30.98425 30.42027 34029 ft 382 kts 306°
2026-04-29 16:06 31.02282 30.37780 34029 ft 379 kts 305°
2026-04-29 16:06 31.05776 30.33301 34033 ft 375 kts 297°
2026-04-29 16:07 31.08695 30.28251 34030 ft 377 kts 291°
2026-04-29 16:07 31.10985 30.22819 34028 ft 373 kts 285°
2026-04-29 16:08 31.12715 30.17125 34028 ft 370 kts 282°
2026-04-29 16:08 31.14308 30.11443 34028 ft 369 kts 281°
2026-04-29 16:09 31.15875 30.05784 34026 ft 371 kts 283°
2026-04-29 16:09 31.18127 30.00293 34027 ft 382 kts 292°
2026-04-29 16:10 31.21397 29.95274 34025 ft 393 kts 303°
2026-04-29 16:10 31.25489 29.91169 34013 ft 391 kts 313°
2026-04-29 16:11 31.30223 29.87925 34008 ft 400 kts 319°
2026-04-29 16:11 31.35115 29.84845 34005 ft 400 kts 319°
2026-04-29 16:12 31.40009 29.81778 34003 ft 400 kts 319°
2026-04-29 16:12 31.44922 29.78697 34005 ft 401 kts 319°
2026-04-29 16:13 31.49797 29.75638 34003 ft 400 kts 319°
2026-04-29 16:13 31.54704 29.72554 34005 ft 400 kts 319°
2026-04-29 16:14 31.59598 29.69477 34002 ft 400 kts 319°
2026-04-29 16:14 31.64471 29.66406 34004 ft 401 kts 319°
2026-04-29 16:15 31.69376 29.63313 34004 ft 401 kts 319°
2026-04-29 16:15 31.74253 29.60235 34003 ft 400 kts 319°
2026-04-29 16:16 31.79154 29.57136 34004 ft 400 kts 319°
2026-04-29 16:16 31.84042 29.54042 34004 ft 400 kts 319°
2026-04-29 16:17 31.88891 29.50970 34004 ft 400 kts 319°
2026-04-29 16:17 31.93793 29.47858 34005 ft 401 kts 319°
2026-04-29 16:18 31.98686 29.44752 34002 ft 401 kts 319°
2026-04-29 16:18 32.03573 29.41642 34004 ft 400 kts 319°
2026-04-29 16:19 32.08469 29.38525 34003 ft 400 kts 319°
2026-04-29 16:19 32.13339 29.35430 34003 ft 401 kts 319°
2026-04-29 16:20 32.18228 29.32308 34005 ft 400 kts 319°
2026-04-29 16:20 32.23112 29.29176 34003 ft 400 kts 319°
2026-04-29 16:21 32.27983 29.26052 34005 ft 399 kts 319°
2026-04-29 16:21 32.32845 29.22933 34003 ft 399 kts 319°
2026-04-29 16:22 32.37700 29.19813 34003 ft 400 kts 319°
2026-04-29 16:22 32.42578 29.16675 34004 ft 399 kts 319°
2026-04-29 16:23 32.47440 29.13544 34004 ft 400 kts 319°
2026-04-29 16:23 32.52311 29.10403 34003 ft 400 kts 319°
2026-04-29 16:24 32.57153 29.07277 34008 ft 399 kts 319°
2026-04-29 16:24 32.62029 29.04125 34013 ft 400 kts 319°
2026-04-29 16:25 32.66889 29.00980 34021 ft 399 kts 318°
2026-04-29 16:25 32.71758 28.97826 34027 ft 400 kts 318°
2026-04-29 16:26 32.76609 28.94678 34028 ft 399 kts 318°
2026-04-29 16:26 32.81435 28.91544 34027 ft 399 kts 318°
2026-04-29 16:27 32.86295 28.88381 34028 ft 400 kts 318°
2026-04-29 16:27 32.91155 28.85216 34027 ft 400 kts 317°
2026-04-29 16:28 32.96028 28.82037 34028 ft 400 kts 317°
2026-04-29 16:28 33.00908 28.78831 34025 ft 404 kts 319°
2026-04-29 16:29 33.05846 28.75581 34025 ft 411 kts 322°
2026-04-29 16:29 33.10871 28.72285 34024 ft 417 kts 324°
2026-04-29 16:30 33.15981 28.68970 34027 ft 422 kts 325°
2026-04-29 16:30 33.21151 28.65613 34029 ft 422 kts 325°
2026-04-29 16:31 33.26276 28.62260 34030 ft 421 kts 325°
2026-04-29 16:31 33.31367 28.58914 34027 ft 421 kts 325°
2026-04-29 16:32 33.36496 28.55535 34028 ft 421 kts 325°
2026-04-29 16:32 33.41589 28.52174 34029 ft 421 kts 325°
2026-04-29 16:33 33.49262 28.47102 34027 ft 422 kts 325°
2026-04-29 16:33 33.54388 28.43707 34029 ft 421 kts 325°
2026-04-29 16:34 33.59497 28.40320 34028 ft 421 kts 325°
2026-04-29 16:34 33.64591 28.36936 34028 ft 421 kts 325°
2026-04-29 16:35 33.69722 28.33516 34028 ft 421 kts 324°
2026-04-29 16:35 33.74799 28.30114 34028 ft 421 kts 324°
2026-04-29 16:36 33.79883 28.26720 34029 ft 421 kts 324°
2026-04-29 16:36 33.85005 28.23269 34027 ft 421 kts 324°
2026-04-29 16:37 33.90086 28.19832 34029 ft 421 kts 324°
2026-04-29 16:37 33.94318 28.16968 34030 ft 421 kts 324°
2026-04-29 16:38 34.00243 28.12955 34029 ft 420 kts 324°
2026-04-29 16:38 34.05327 28.09510 34028 ft 421 kts 324°
2026-04-29 16:39 34.10408 28.06060 34028 ft 421 kts 324°
2026-04-29 16:39 34.15517 28.02608 34029 ft 421 kts 324°
2026-04-29 16:40 34.20584 27.99173 34029 ft 420 kts 324°
2026-04-29 16:40 34.25685 27.95699 34028 ft 420 kts 324°
2026-04-29 16:41 34.30765 27.92233 34028 ft 421 kts 324°
2026-04-29 16:41 34.35860 27.88749 34029 ft 421 kts 324°
2026-04-29 16:42 34.40906 27.85294 34029 ft 420 kts 324°
2026-04-29 16:42 34.45989 27.81809 34029 ft 420 kts 324°
2026-04-29 16:43 34.51070 27.78319 34028 ft 420 kts 324°
2026-04-29 16:43 34.56149 27.74825 34029 ft 421 kts 324°
2026-04-29 16:44 34.61236 27.71311 34030 ft 421 kts 324°
2026-04-29 16:44 34.66367 27.67880 34166 ft 426 kts 327°
2026-04-29 16:45 34.69025 27.66309 34493 ft 425 kts 328°
2026-04-29 16:45 34.71657 27.64780 34808 ft 423 kts 328°
2026-04-29 16:45 34.74316 27.63230 35087 ft 422 kts 328°
2026-04-29 16:45 34.76953 27.61682 35324 ft 422 kts 328°
2026-04-29 16:46 34.79584 27.60131 35552 ft 421 kts 328°
2026-04-29 16:46 34.82216 27.58573 35774 ft 421 kts 328°
2026-04-29 16:46 34.84837 27.57019 35981 ft 421 kts 328°
2026-04-29 16:46 34.87211 27.55608 36014 ft 421 kts 328°
2026-04-29 16:47 34.92668 27.52351 36026 ft 421 kts 328°
2026-04-29 16:47 34.97925 27.49203 36028 ft 423 kts 330°
2026-04-29 16:48 35.03213 27.46039 36028 ft 425 kts 331°
2026-04-29 16:48 35.08515 27.42874 36029 ft 427 kts 331°
2026-04-29 16:49 35.13861 27.39691 36030 ft 427 kts 332°
2026-04-29 16:49 35.19194 27.36511 36030 ft 427 kts 331°
2026-04-29 16:50 35.24483 27.33332 36029 ft 427 kts 330°
2026-04-29 16:50 35.29794 27.30111 36030 ft 427 kts 330°
2026-04-29 16:51 35.35127 27.26886 36030 ft 427 kts 330°
2026-04-29 16:51 35.40427 27.23683 36030 ft 427 kts 330°
2026-04-29 16:52 35.45717 27.20482 36030 ft 427 kts 331°
2026-04-29 16:52 35.51065 27.17243 36030 ft 427 kts 331°
2026-04-29 16:53 35.56358 27.14033 36030 ft 427 kts 331°
2026-04-29 16:53 35.61674 27.10805 36030 ft 426 kts 330°
2026-04-29 16:54 35.66985 27.07575 36030 ft 426 kts 330°
2026-04-29 16:54 35.72257 27.04365 36030 ft 426 kts 330°
2026-04-29 16:55 35.77546 27.01139 36030 ft 426 kts 330°
2026-04-29 16:55 35.82849 26.97899 36030 ft 425 kts 330°
2026-04-29 16:56 35.88130 26.94667 36030 ft 425 kts 330°
2026-04-29 16:56 35.93385 26.91447 36030 ft 424 kts 330°
2026-04-29 16:57 35.98654 26.88213 36030 ft 424 kts 330°
2026-04-29 16:57 36.03953 26.84955 36030 ft 424 kts 330°
2026-04-29 16:58 36.09210 26.81718 36026 ft 424 kts 330°
2026-04-29 16:58 36.14461 26.78494 36019 ft 424 kts 330°
2026-04-29 16:59 36.19740 26.75250 36012 ft 424 kts 330°
2026-04-29 16:59 36.25006 26.72000 36008 ft 424 kts 330°
2026-04-29 17:00 36.30265 26.68746 36006 ft 424 kts 330°
2026-04-29 17:00 36.35529 26.65482 36005 ft 424 kts 330°
2026-04-29 17:01 36.40768 26.62228 36005 ft 424 kts 330°
2026-04-29 17:01 36.46047 26.58943 36005 ft 424 kts 330°
2026-04-29 17:02 36.51282 26.55682 36005 ft 424 kts 330°
2026-04-29 17:02 36.56562 26.52387 36005 ft 424 kts 330°
2026-04-29 17:03 36.61790 26.49120 36005 ft 424 kts 330°
2026-04-29 17:03 36.67038 26.45835 36005 ft 424 kts 330°
2026-04-29 17:04 36.72290 26.42543 36005 ft 424 kts 330°
2026-04-29 17:04 36.77545 26.39243 36005 ft 424 kts 330°
2026-04-29 17:05 36.82795 26.35942 36006 ft 424 kts 330°
2026-04-29 17:05 36.88048 26.32619 36011 ft 424 kts 329°
2026-04-29 17:06 36.93285 26.29293 36017 ft 423 kts 329°
2026-04-29 17:06 36.98515 26.25980 36024 ft 423 kts 329°
2026-04-29 17:07 37.03668 26.22714 36031 ft 424 kts 329°
2026-04-29 17:07 37.08931 26.19377 36038 ft 424 kts 329°
2026-04-29 17:08 37.14167 26.16067 36046 ft 424 kts 330°
2026-04-29 17:08 37.19406 26.12754 36052 ft 424 kts 330°
2026-04-29 17:09 37.24641 26.09428 36056 ft 424 kts 330°
2026-04-29 17:09 37.29894 26.06080 36058 ft 424 kts 330°
2026-04-29 17:10 37.35150 26.02724 36055 ft 424 kts 330°
2026-04-29 17:10 37.40405 25.99363 36051 ft 424 kts 330°
2026-04-29 17:11 37.45622 25.96020 36048 ft 424 kts 330°
2026-04-29 17:11 37.50863 25.92656 36050 ft 424 kts 330°
2026-04-29 17:12 37.56121 25.89276 36054 ft 424 kts 330°
2026-04-29 17:12 37.60503 25.86472 36056 ft 425 kts 330°
2026-04-29 17:13 37.66654 25.82656 36058 ft 425 kts 330°
2026-04-29 17:13 37.71946 25.79374 36058 ft 425 kts 330°
2026-04-29 17:14 37.77237 25.76081 36058 ft 425 kts 330°
2026-04-29 17:14 37.82539 25.72772 36059 ft 430 kts 330°
2026-04-29 17:15 37.87941 25.69393 36060 ft 439 kts 330°
2026-04-29 17:15 37.93473 25.65928 36061 ft 447 kts 330°
2026-04-29 17:16 37.99145 25.62713 36058 ft 451 kts 335°
2026-04-29 17:16 38.04958 25.59775 36058 ft 452 kts 335°
2026-04-29 17:17 38.10785 25.56808 36057 ft 452 kts 335°
2026-04-29 17:17 38.16608 25.53826 36058 ft 452 kts 335°
2026-04-29 17:18 38.22384 25.50848 36058 ft 452 kts 335°
2026-04-29 17:18 38.28209 25.47829 36058 ft 452 kts 335°
2026-04-29 17:19 38.33983 25.44826 36058 ft 452 kts 335°
2026-04-29 17:19 38.39785 25.41802 36058 ft 452 kts 335°
2026-04-29 17:20 38.45569 25.38782 36058 ft 452 kts 335°
2026-04-29 17:20 38.51364 25.35751 36058 ft 452 kts 335°
2026-04-29 17:21 38.57158 25.32698 36058 ft 451 kts 334°
2026-04-29 17:21 38.62931 25.29642 36058 ft 451 kts 334°
2026-04-29 17:22 38.68729 25.26582 36058 ft 451 kts 334°
2026-04-29 17:22 38.74495 25.23541 36058 ft 451 kts 334°
2026-04-29 17:23 38.80302 25.20476 36061 ft 451 kts 334°
2026-04-29 17:23 38.86080 25.17421 36067 ft 452 kts 334°
2026-04-29 17:24 38.91867 25.14357 36076 ft 453 kts 334°
2026-04-29 17:24 38.97689 25.11269 36081 ft 453 kts 334°
2026-04-29 17:25 39.03491 25.08187 36084 ft 453 kts 334°
2026-04-29 17:25 39.09274 25.05108 36084 ft 454 kts 334°
2026-04-29 17:26 39.15103 25.02012 36084 ft 455 kts 334°
2026-04-29 17:26 39.20976 24.98888 36084 ft 456 kts 333°
2026-04-29 17:27 39.26816 24.95767 36084 ft 458 kts 333°
2026-04-29 17:27 39.32709 24.92608 36084 ft 459 kts 333°
2026-04-29 17:28 39.38583 24.89452 36085 ft 459 kts 333°
2026-04-29 17:28 39.44423 24.86309 36084 ft 459 kts 333°
2026-04-29 17:29 39.50324 24.83126 36084 ft 459 kts 333°
2026-04-29 17:29 39.55232 24.80475 36084 ft 459 kts 333°
2026-04-29 17:30 39.62042 24.76790 36084 ft 459 kts 333°
2026-04-29 17:30 39.67917 24.73605 36085 ft 459 kts 333°
2026-04-29 17:31 39.73788 24.70415 36084 ft 459 kts 333°
2026-04-29 17:31 39.79688 24.67204 36084 ft 459 kts 333°
2026-04-29 17:32 39.85518 24.64026 36084 ft 459 kts 333°
2026-04-29 17:32 39.91381 24.60822 36085 ft 459 kts 333°
2026-04-29 17:33 39.97284 24.57592 36084 ft 459 kts 333°
2026-04-29 17:33 40.03151 24.54375 36084 ft 459 kts 333°
2026-04-29 17:34 40.09017 24.51153 36082 ft 459 kts 333°
2026-04-29 17:34 40.14879 24.47939 36076 ft 459 kts 333°
2026-04-29 17:35 40.23686 24.43101 36065 ft 459 kts 333°
2026-04-29 17:36 40.29536 24.39869 36062 ft 459 kts 333°
2026-04-29 17:36 40.35383 24.36631 36061 ft 459 kts 333°
2026-04-29 17:37 40.41237 24.33374 36060 ft 458 kts 332°
2026-04-29 17:37 40.47062 24.30106 36059 ft 459 kts 333°
2026-04-29 17:38 40.52947 24.26814 36060 ft 459 kts 333°
2026-04-29 17:38 40.58794 24.23546 36060 ft 459 kts 333°
2026-04-29 17:39 40.64635 24.20279 36060 ft 458 kts 333°
2026-04-29 17:39 40.70467 24.17010 36060 ft 459 kts 333°
2026-04-29 17:40 40.76333 24.13717 36059 ft 459 kts 333°
2026-04-29 17:40 40.82168 24.10435 36060 ft 459 kts 333°
2026-04-29 17:41 40.88053 24.07119 36060 ft 459 kts 333°
2026-04-29 17:41 40.93876 24.03831 36060 ft 459 kts 333°
2026-04-29 17:42 40.99740 24.00513 36061 ft 458 kts 333°
2026-04-29 17:42 41.05523 23.97235 36059 ft 454 kts 333°
2026-04-29 17:43 41.11308 23.93949 36062 ft 451 kts 333°
2026-04-29 17:43 41.17025 23.90716 36060 ft 448 kts 333°
2026-04-29 17:44 41.22733 23.87470 36059 ft 448 kts 333°
2026-04-29 17:44 41.28418 23.84223 36059 ft 448 kts 333°
2026-04-29 17:45 41.34148 23.81002 36058 ft 449 kts 335°
2026-04-29 17:45 41.40084 23.78406 36057 ft 453 kts 341°
2026-04-29 17:46 41.46243 23.76683 36059 ft 455 kts 348°
2026-04-29 17:46 41.52539 23.75691 36059 ft 456 kts 350°
2026-04-29 17:47 41.58834 23.74820 36061 ft 456 kts 351°
2026-04-29 17:47 41.65094 23.73942 36060 ft 457 kts 350°
2026-04-29 17:48 41.71394 23.73050 36071 ft 457 kts 350°
2026-04-29 17:48 41.77718 23.72149 36086 ft 457 kts 350°
2026-04-29 17:49 41.84002 23.71249 36100 ft 457 kts 350°
2026-04-29 17:49 41.90288 23.70346 36105 ft 456 kts 350°
2026-04-29 17:50 41.96582 23.69443 36110 ft 457 kts 350°
2026-04-29 17:50 42.02887 23.68533 36111 ft 456 kts 350°
2026-04-29 17:51 42.09204 23.67620 36112 ft 457 kts 350°
2026-04-29 17:51 42.15476 23.66720 36113 ft 456 kts 350°
2026-04-29 17:52 42.21754 23.65814 36112 ft 456 kts 350°
2026-04-29 17:52 42.28036 23.64858 36113 ft 455 kts 348°
2026-04-29 17:53 42.34213 23.63226 36113 ft 453 kts 343°
2026-04-29 17:53 42.40299 23.61138 36112 ft 452 kts 342°
2026-04-29 17:54 42.46375 23.59019 36112 ft 452 kts 342°
2026-04-29 17:54 42.52416 23.56918 36113 ft 452 kts 342°
2026-04-29 17:55 42.58514 23.54798 36110 ft 452 kts 342°
2026-04-29 17:55 42.64594 23.52680 36112 ft 452 kts 342°
2026-04-29 17:56 42.70633 23.50575 36113 ft 452 kts 342°
2026-04-29 17:56 42.76723 23.48448 36112 ft 452 kts 342°
2026-04-29 17:57 42.82775 23.46330 36112 ft 452 kts 342°
2026-04-29 17:57 42.88853 23.44197 36112 ft 453 kts 342°
2026-04-29 17:58 42.94936 23.42055 36111 ft 456 kts 342°
2026-04-29 17:58 43.01104 23.39881 36112 ft 460 kts 343°
2026-04-29 17:59 43.07288 23.37699 36112 ft 463 kts 343°
2026-04-29 17:59 43.13540 23.35494 36112 ft 464 kts 343°
2026-04-29 18:00 43.19760 23.33396 36113 ft 464 kts 346°
2026-04-29 18:00 43.26123 23.32077 36111 ft 467 kts 351°
2026-04-29 18:01 43.32587 23.31294 36114 ft 467 kts 352°
2026-04-29 18:01 43.39025 23.30518 36113 ft 466 kts 352°
2026-04-29 18:02 43.45445 23.29717 36112 ft 467 kts 352°
2026-04-29 18:02 43.51902 23.28906 36113 ft 466 kts 352°
2026-04-29 18:03 43.58337 23.28109 36113 ft 467 kts 352°
2026-04-29 18:03 43.64787 23.27314 36119 ft 466 kts 352°
2026-04-29 18:04 43.71211 23.26519 36124 ft 467 kts 352°
2026-04-29 18:04 43.77631 23.25490 36129 ft 465 kts 347°
2026-04-29 18:05 43.83885 23.23512 36136 ft 463 kts 341°
2026-04-29 18:05 43.89914 23.20542 36136 ft 459 kts 334°
2026-04-29 18:06 43.95659 23.16827 36139 ft 459 kts 331°
2026-04-29 18:06 44.01385 23.12971 36138 ft 459 kts 331°
2026-04-29 18:07 44.07132 23.09106 36137 ft 459 kts 331°
2026-04-29 18:07 44.12882 23.05248 36138 ft 458 kts 332°
2026-04-29 18:08 44.18605 23.01420 36139 ft 457 kts 332°
2026-04-29 18:08 44.24291 22.97598 36139 ft 454 kts 332°
2026-04-29 18:09 44.29947 22.93776 36141 ft 451 kts 332°
2026-04-29 18:09 44.35541 22.89988 36140 ft 449 kts 332°
2026-04-29 18:10 44.41111 22.86206 36141 ft 446 kts 332°
2026-04-29 18:10 44.46675 22.82424 36139 ft 444 kts 332°
2026-04-29 18:11 44.52188 22.78667 36140 ft 442 kts 332°
2026-04-29 18:11 44.57701 22.74906 36138 ft 442 kts 333°
2026-04-29 18:12 44.63203 22.71146 36140 ft 442 kts 333°
2026-04-29 18:12 44.68731 22.67357 36146 ft 442 kts 333°
2026-04-29 18:13 44.74246 22.63567 36149 ft 441 kts 332°
2026-04-29 18:13 44.79740 22.59773 36154 ft 441 kts 332°
2026-04-29 18:14 44.85215 22.55925 36160 ft 442 kts 332°
2026-04-29 18:14 44.90672 22.52079 36165 ft 442 kts 332°
2026-04-29 18:15 44.96162 22.48203 36163 ft 442 kts 332°
2026-04-29 18:15 45.01622 22.44341 36165 ft 440 kts 332°
2026-04-29 18:16 45.07088 22.40468 36168 ft 437 kts 333°
2026-04-29 18:16 45.12464 22.36657 36168 ft 434 kts 333°
2026-04-29 18:17 45.17878 22.32819 36167 ft 433 kts 332°
2026-04-29 18:17 45.23219 22.28998 36166 ft 433 kts 332°
2026-04-29 18:18 45.28618 22.25133 36166 ft 433 kts 332°
2026-04-29 18:18 45.33947 22.21312 36169 ft 433 kts 332°
2026-04-29 18:19 45.39313 22.17461 36170 ft 433 kts 332°
2026-04-29 18:19 45.44675 22.13606 36171 ft 433 kts 332°
2026-04-29 18:20 45.50070 22.09719 36173 ft 433 kts 332°
2026-04-29 18:20 45.55409 22.05865 36176 ft 433 kts 332°
2026-04-29 18:21 45.60760 22.01992 36181 ft 433 kts 332°
2026-04-29 18:21 45.66128 21.98099 36187 ft 433 kts 332°
2026-04-29 18:22 45.71489 21.94204 36191 ft 433 kts 332°
2026-04-29 18:22 45.76822 21.90319 36192 ft 433 kts 332°
2026-04-29 18:23 45.82204 21.86392 36192 ft 433 kts 332°
2026-04-29 18:23 45.87532 21.82494 36192 ft 433 kts 332°
2026-04-29 18:24 45.92963 21.78773 36192 ft 434 kts 336°
2026-04-29 18:24 45.98613 21.75695 36191 ft 434 kts 339°
2026-04-29 18:25 46.04244 21.72772 36192 ft 434 kts 339°
2026-04-29 18:25 46.09946 21.69804 36191 ft 434 kts 339°
2026-04-29 18:26 46.15601 21.66861 36194 ft 434 kts 339°
2026-04-29 18:26 46.21276 21.63894 36194 ft 434 kts 339°
2026-04-29 18:27 46.26913 21.60933 36192 ft 434 kts 339°
2026-04-29 18:27 46.32601 21.57937 36193 ft 434 kts 339°
2026-04-29 18:28 46.38215 21.54970 36192 ft 434 kts 339°
2026-04-29 18:28 46.43912 21.51953 36192 ft 434 kts 339°
2026-04-29 18:29 46.49561 21.48952 36192 ft 434 kts 339°
2026-04-29 18:29 46.55193 21.45850 36193 ft 434 kts 336°
2026-04-29 18:30 46.60621 21.42144 36193 ft 433 kts 333°
2026-04-29 18:30 46.65993 21.38260 36193 ft 433 kts 333°
2026-04-29 18:31 46.71382 21.34352 36193 ft 433 kts 332°
2026-04-29 18:31 46.76736 21.30443 36196 ft 433 kts 332°
2026-04-29 18:32 46.82132 21.26505 36199 ft 433 kts 332°
2026-04-29 18:32 46.90192 21.20624 36211 ft 433 kts 333°
2026-04-29 18:33 46.95527 21.16725 36215 ft 431 kts 333°
2026-04-29 18:33 47.00858 21.12824 36223 ft 430 kts 333°
2026-04-29 18:34 47.05319 21.09551 36230 ft 428 kts 333°
2026-04-29 18:34 47.11472 21.05035 36239 ft 426 kts 333°
2026-04-29 18:35 47.16727 21.01183 36240 ft 423 kts 333°
2026-04-29 18:35 47.21961 20.97329 36239 ft 421 kts 333°
2026-04-29 18:36 47.27193 20.93462 36236 ft 419 kts 333°
2026-04-29 18:36 47.32361 20.89629 36233 ft 417 kts 333°
2026-04-29 18:37 47.37492 20.85817 36228 ft 415 kts 333°
2026-04-29 18:37 47.42630 20.81989 36226 ft 415 kts 333°
2026-04-29 18:38 47.47733 20.78179 36227 ft 415 kts 333°
2026-04-29 18:38 47.52879 20.74330 36230 ft 415 kts 333°
2026-04-29 18:39 47.58000 20.70489 36232 ft 415 kts 333°
2026-04-29 18:39 47.63119 20.66643 36230 ft 415 kts 333°
2026-04-29 18:40 47.68210 20.62807 36227 ft 415 kts 333°
2026-04-29 18:40 47.73225 20.59024 36225 ft 415 kts 333°
2026-04-29 18:41 47.83575 20.51205 36229 ft 415 kts 334°
2026-04-29 18:42 47.88868 20.47789 36238 ft 415 kts 338°
2026-04-29 18:42 47.94202 20.44563 36247 ft 415 kts 338°
2026-04-29 18:43 47.99528 20.41335 36249 ft 415 kts 338°
2026-04-29 18:43 48.04868 20.38087 36251 ft 415 kts 338°
2026-04-29 18:44 48.10220 20.34821 36255 ft 415 kts 337°
2026-04-29 18:44 48.15550 20.31549 36262 ft 415 kts 337°
2026-04-29 18:45 48.20846 20.28294 36268 ft 415 kts 337°
2026-04-29 18:45 48.26184 20.25012 36272 ft 415 kts 337°
2026-04-29 18:46 48.31488 20.21744 36274 ft 415 kts 337°
2026-04-29 18:46 48.36823 20.18452 36276 ft 415 kts 337°
2026-04-29 18:47 48.42019 20.15238 36275 ft 415 kts 337°
2026-04-29 18:47 48.47385 20.11910 36275 ft 415 kts 337°
2026-04-29 18:48 48.50045 20.10258 35945 ft 419 kts 337°
2026-04-29 18:48 48.52749 20.08574 35111 ft 421 kts 337°
2026-04-29 18:48 48.55428 20.06904 34344 ft 421 kts 337°
2026-04-29 18:48 48.58120 20.05225 33573 ft 421 kts 337°
2026-04-29 18:49 48.60794 20.03556 32794 ft 421 kts 336°
2026-04-29 18:49 48.63519 20.01854 31978 ft 422 kts 336°
2026-04-29 18:49 48.66193 20.00183 31162 ft 423 kts 336°
2026-04-29 18:49 48.68917 19.98478 30307 ft 424 kts 336°
2026-04-29 18:50 48.71588 19.96803 29645 ft 421 kts 336°
2026-04-29 18:50 48.74292 19.95106 29122 ft 415 kts 336°
2026-04-29 18:50 48.76915 19.93456 28606 ft 410 kts 336°
2026-04-29 18:50 48.79532 19.91810 28088 ft 406 kts 336°
2026-04-29 18:51 48.82090 19.90198 27575 ft 402 kts 336°
2026-04-29 18:51 48.84676 19.88568 27053 ft 398 kts 336°
2026-04-29 18:51 48.87192 19.86979 26544 ft 394 kts 336°
2026-04-29 18:51 48.89714 19.85385 26030 ft 391 kts 336°
2026-04-29 18:52 48.92193 19.83817 25526 ft 388 kts 336°
2026-04-29 18:52 48.94661 19.82254 25017 ft 385 kts 336°
2026-04-29 18:52 48.97082 19.80720 24519 ft 383 kts 335°
2026-04-29 18:52 48.99525 19.79172 24006 ft 380 kts 335°
2026-04-29 18:53 49.01909 19.77660 23496 ft 379 kts 335°
2026-04-29 18:53 49.04321 19.76128 22977 ft 378 kts 335°
2026-04-29 18:53 49.06756 19.74578 22450 ft 377 kts 335°
2026-04-29 18:53 49.09142 19.73056 21928 ft 376 kts 334°
2026-04-29 18:54 49.11562 19.71515 21401 ft 375 kts 334°
2026-04-29 18:54 49.13942 19.70002 20881 ft 374 kts 334°
2026-04-29 18:54 49.16331 19.68478 20366 ft 373 kts 334°
2026-04-29 18:54 49.18735 19.66940 19854 ft 372 kts 334°
2026-04-29 18:55 49.21096 19.65490 19353 ft 372 kts 338°
2026-04-29 18:55 49.23608 19.64481 18853 ft 373 kts 347°
2026-04-29 18:55 49.26158 19.64072 18372 ft 375 kts 355°
2026-04-29 18:55 49.28777 19.64083 17890 ft 374 kts 358°
2026-04-29 18:56 49.31344 19.64193 17421 ft 372 kts 359°
2026-04-29 18:56 49.33890 19.64310 16958 ft 370 kts 359°
2026-04-29 18:56 49.36463 19.64415 16495 ft 367 kts 359°
2026-04-29 18:56 49.38985 19.64506 16045 ft 365 kts 359°
2026-04-29 18:57 49.41500 19.64591 15598 ft 362 kts 359°
2026-04-29 18:57 49.43985 19.64928 15140 ft 365 kts 11°
2026-04-29 18:57 49.46348 19.66444 14948 ft 371 kts 31°
2026-04-29 18:57 49.48505 19.68635 14715 ft 371 kts 27°
2026-04-29 18:58 49.50889 19.69833 14445 ft 363 kts
2026-04-29 18:58 49.53332 19.69361 14197 ft 354 kts 336°
2026-04-29 18:58 49.55373 19.67430 13966 ft 348 kts 318°
2026-04-29 18:58 49.57261 19.65104 13709 ft 348 kts 323°
2026-04-29 18:59 49.59352 19.63310 13463 ft 350 kts 332°
2026-04-29 18:59 49.61572 19.61742 13212 ft 349 kts 333°
2026-04-29 18:59 49.63770 19.60217 12962 ft 348 kts 333°
2026-04-29 18:59 49.65966 19.58665 12712 ft 347 kts 333°
2026-04-29 19:00 49.68151 19.57088 12461 ft 346 kts 332°
2026-04-29 19:00 49.70293 19.55521 12213 ft 345 kts 332°
2026-04-29 19:00 49.72453 19.53925 11963 ft 344 kts 332°
2026-04-29 19:00 49.74583 19.52342 11715 ft 342 kts 332°
2026-04-29 19:01 49.76723 19.50746 11464 ft 340 kts 332°
2026-04-29 19:01 49.78828 19.49173 11216 ft 338 kts 332°
2026-04-29 19:01 49.80915 19.47610 10969 ft 336 kts 332°
2026-04-29 19:01 49.83033 19.46022 10720 ft 333 kts 332°
2026-04-29 19:02 49.85062 19.44498 10403 ft 326 kts 332°
2026-04-29 19:02 49.86425 19.43475 10174 ft 321 kts 332°
2026-04-29 19:02 49.89030 19.41516 9944 ft 305 kts 332°
2026-04-29 19:02 49.90884 19.40122 9815 ft 293 kts 332°
2026-04-29 19:03 49.92677 19.38771 9687 ft 281 kts 332°
2026-04-29 19:03 49.94405 19.37468 9559 ft 273 kts 332°
2026-04-29 19:03 49.96098 19.36188 9436 ft 273 kts 332°
2026-04-29 19:03 49.97810 19.34891 9310 ft 272 kts 331°
2026-04-29 19:04 49.99487 19.33611 9187 ft 271 kts 331°
2026-04-29 19:04 50.01173 19.32321 9063 ft 270 kts 331°
2026-04-29 19:04 50.02833 19.31055 8940 ft 269 kts 332°
2026-04-29 19:04 50.04502 19.29783 8816 ft 268 kts 332°
2026-04-29 19:05 50.06161 19.28522 8692 ft 267 kts 332°
2026-04-29 19:05 50.07788 19.27284 8570 ft 267 kts 332°
2026-04-29 19:05 50.09451 19.26020 8446 ft 266 kts 332°
2026-04-29 19:05 50.11121 19.24753 8320 ft 265 kts 332°
2026-04-29 19:06 50.12751 19.23522 8198 ft 264 kts 332°
2026-04-29 19:06 50.14396 19.22278 8073 ft 264 kts 333°
2026-04-29 19:06 50.17841 19.19654 7808 ft 282 kts 333°
2026-04-29 19:07 50.19596 19.18319 7684 ft 282 kts 333°
2026-04-29 19:07 50.20744 19.17443 7602 ft 281 kts 333°
2026-04-29 19:07 50.23067 19.15670 7382 ft 274 kts 333°
2026-04-29 19:07 50.24600 19.14026 7126 ft 266 kts 310°
2026-04-29 19:08 50.25578 19.11691 7004 ft 259 kts 301°
2026-04-29 19:08 50.26467 19.09246 6879 ft 259 kts 300°
2026-04-29 19:08 50.27367 19.06801 6754 ft 259 kts 301°
2026-04-29 19:08 50.28276 19.04402 6630 ft 259 kts 302°
2026-04-29 19:09 50.29208 19.01986 6505 ft 259 kts 302°
2026-04-29 19:09 50.30109 18.99678 6385 ft 259 kts 303°
2026-04-29 19:09 50.31051 18.97280 6259 ft 259 kts 303°
2026-04-29 19:09 50.31979 18.94925 6137 ft 259 kts 303°
2026-04-29 19:10 50.32922 18.92536 6013 ft 258 kts 303°
2026-04-29 19:10 50.33853 18.90176 5800 ft 251 kts 303°
2026-04-29 19:10 50.34753 18.87891 5586 ft 244 kts 303°
2026-04-29 19:10 50.35630 18.85664 5377 ft 238 kts 303°
2026-04-29 19:11 50.36488 18.83487 5171 ft 233 kts 303°
2026-04-29 19:11 50.37328 18.81351 5015 ft 229 kts 303°
2026-04-29 19:11 50.38164 18.79221 5003 ft 231 kts 301°
2026-04-29 19:11 50.38751 18.76889 4998 ft 233 kts 282°
2026-04-29 19:12 50.38878 18.74352 5000 ft 235 kts 272°
2026-04-29 19:12 50.38857 18.71817 4995 ft 231 kts 270°
2026-04-29 19:12 50.38822 18.69316 4996 ft 229 kts 271°
2026-04-29 19:12 50.38905 18.67655 4978 ft 227 kts 287°
2026-04-29 19:13 50.40093 18.65076 4980 ft 221 kts 330°
2026-04-29 19:13 50.41515 18.64386 4989 ft 217 kts 357°
2026-04-29 19:13 50.43024 18.64369 5002 ft 217 kts
2026-04-29 19:13 50.44504 18.64422 4986 ft 206 kts
2026-04-29 19:14 50.45890 18.64725 4974 ft 202 kts 22°
2026-04-29 19:14 50.47020 18.65999 4970 ft 201 kts 53°
2026-04-29 19:14 50.47590 18.67980 4821 ft 200 kts 75°
2026-04-29 19:14 50.47757 18.70162 4605 ft 202 kts 86°
2026-04-29 19:15 50.47762 18.72341 4402 ft 200 kts 90°
2026-04-29 19:15 50.47730 18.74516 4228 ft 200 kts 90°
2026-04-29 19:15 50.47699 18.76691 4032 ft 195 kts 90°
2026-04-29 19:15 50.47679 18.78714 3995 ft 179 kts 89°
2026-04-29 19:16 50.47667 18.80649 3994 ft 178 kts 89°
2026-04-29 19:16 50.47659 18.82595 3872 ft 179 kts 89°
2026-04-29 19:16 50.47652 18.84540 3603 ft 177 kts 89°
2026-04-29 19:16 50.47645 18.86453 3368 ft 176 kts 89°
2026-04-29 19:17 50.47638 18.88372 3129 ft 170 kts 89°
2026-04-29 19:17 50.47631 18.90123 2908 ft 153 kts 89°
2026-04-29 19:17 50.47626 18.91704 2707 ft 137 kts 89°
2026-04-29 19:17 50.47622 18.93154 2557 ft 132 kts 89°
2026-04-29 19:18 50.47618 18.94595 2389 ft 132 kts 89°
2026-04-29 19:18 50.47615 18.95552 2274 ft 132 kts 89°
2026-04-29 19:18 50.47608 18.97461 2039 ft 131 kts 89°
2026-04-29 19:18 50.47603 18.98910 1862 ft 131 kts 89°
2026-04-29 19:19 50.47598 19.00331 1690 ft 131 kts 89°
2026-04-29 19:19 50.47594 19.01747 1516 ft 130 kts 89°
2026-04-29 19:19 50.47591 19.03179 1337 ft 130 kts 89°
2026-04-29 19:19 50.47615 19.04593 1170 ft 130 kts 89°
2026-04-29 19:20 50.47604 19.05999 1017 ft 129 kts 90°
2026-04-29 19:20 50.47597 19.07325 978 ft 107 kts 90°
2026-04-29 19:20 50.47598 19.08235 981 ft 62 kts 91°
2026-04-29 19:20 50.47595 19.08883 984 ft 56 kts 91°
2026-04-29 19:21 50.47582 19.09378 987 ft 21 kts 144°
2026-04-29 19:21 50.47471 19.09390 989 ft 0 kts 181°
2026-04-29 19:22 50.47470 19.09390 989 ft 0 kts 181°
2026-04-29 19:22 50.47452 19.09389 989 ft 4 kts 181°
2026-04-29 19:22 50.47391 19.09388 992 ft 15 kts 180°
2026-04-29 19:22 50.47257 19.09382 995 ft 18 kts 195°
2026-04-29 19:23 50.47230 19.09202 994 ft 18 kts 272°
2026-04-29 19:23 50.47232 19.08996 991 ft 19 kts 271°
2026-04-29 19:23 50.47234 19.08770 988 ft 21 kts 266°
2026-04-29 19:23 50.47235 19.08537 985 ft 22 kts 271°
2026-04-29 19:24 50.47234 19.08300 985 ft 21 kts 270°
2026-04-29 19:24 50.47234 19.08065 983 ft 21 kts 270°
2026-04-29 19:24 50.47234 19.07834 983 ft 21 kts 270°
2026-04-29 19:24 50.47236 19.07605 983 ft 20 kts 271°
2026-04-29 19:25 50.47237 19.07377 982 ft 21 kts 270°
2026-04-29 19:25 50.47237 19.07152 981 ft 20 kts 270°
2026-04-29 19:25 50.47198 19.07077 981 ft 9 kts 174°
2026-04-29 19:25 50.47149 19.07076 981 ft 0 kts 182°